Content
SEND FEEDBACK

Daily
Averages
Monthly
Summary
United States of America

ST. LOUIS, MISSOURI


Home > North America > United States > Missouri
Elevation: 535 feet     Latitude: 38 45N     Longitude: 090 22W

WEATHER
 
SELECT A DAY
Number of Records: 201,199;   Date Range: 1/1/95 - 12/17/14
 
SHARE

PRINT THIS DATA

[ ← Previous Day ]
WEATHER ALMANAC - FEBRUARY 17, 2013
[ Next Day → ]
[ °C ]   °F
Weather ElementAverageHighLow
Temperature37.6 °F48.9 °F (2:54 pm)23 °F (1:54 am)
Dewpoint20.5 °F30 °F (10:54 pm)15.1 °F (9:54 am)
Humidity53 %78 % (2:54 am)29 % (2:54 pm)
Barometer30.09 in30.20 in (5:54 am)29.91 in (11:54 pm)
Wind Speed6.4 mph12.7 mph (12:54 pm)
Wind Gust20.7 mph (3:54 pm)
Weather ElementAverage
Visibility10 mi
Wind DirectionE (91.7 °)

Weather ElementTotal
Precipitation---
Heating Degree Days29.1 (Base 65)
Averaged from 23 records on February 17, 2013
WEATHER CONDITIONS BREAKOUT
WIND DIRECTION BREAKOUT
WEATHER BY HOUR - FEBRUARY 17, 2013
[ °C ]   °F
Local TimeTemperatureDewpointHumidityBarometerVisibilityWind DirectionWind SpeedGust SpeedPrecipitationEventsConditions
1:54 AM23.0 °F16.0 °F74 %30.19 in10.0 miCalmOvercast
2:54 AM23.0 °F17.1 °F78 %30.19 in10.0 miCalmOvercast
3:54 AM24.1 °F17.1 °F75 %30.18 in10.0 miCalmOvercast
4:54 AM24.1 °F17.1 °F75 %30.19 in10.0 miCalmOvercast
5:54 AM23.0 °F16.0 °F74 %30.20 in10.0 miENE (70°)4.6 mphOvercast
6:54 AM26.1 °F17.1 °F69 %30.20 in10.0 miEast (80°)3.5 mphOvercast
7:54 AM28.0 °F18.0 °F66 %30.19 in10.0 miCalmMostly Cloudy
8:54 AM32.0 °F16.0 °F52 %30.19 in10.0 miESE (120°)6.9 mphMostly Cloudy
9:54 AM37.0 °F15.1 °F41 %30.19 in10.0 miSE (140°)9.2 mphMostly Cloudy
10:54 AM39.0 °F15.1 °F38 %30.18 in10.0 miSSE (160°)9.2 mphMostly Cloudy
11:54 AM42.1 °F15.1 °F34 %30.15 in10.0 miSE (130°)11.5 mphScattered Clouds
12:54 PM46.0 °F16.0 °F30 %30.10 in10.0 miEast (100°)12.7 mph17.3 mphScattered Clouds
1:54 PM46.9 °F17.1 °F30 %30.07 in10.0 miESE (120°)9.2 mphClear
2:54 PM48.9 °F18.0 °F29 %30.04 in10.0 miESE (110°)12.7 mph19.6 mphMostly Cloudy
3:54 PM48.9 °F21.0 °F33 %30.02 in10.0 miESE (120°)10.4 mph20.7 mphClear
4:54 PM48.0 °F21.9 °F36 %29.99 in10.0 miESE (110°)10.4 mphMostly Cloudy
5:54 PM46.0 °F25.0 °F44 %29.99 in10.0 miESE (120°)10.4 mph18.4 mphClear
6:54 PM44.1 °F27.0 °F51 %29.99 in10.0 miSE (140°)6.9 mphClear
7:54 PM43.0 °F28.0 °F56 %29.98 in10.0 miSSE (150°)6.9 mphClear
8:54 PM44.1 °F28.0 °F53 %29.97 in10.0 miSE (140°)4.6 mphClear
9:54 PM42.1 °F28.9 °F60 %29.95 in10.0 miVariable4.6 mphClear
10:54 PM43.0 °F30.0 °F60 %29.94 in10.0 miSSE (160°)5.8 mphClear
11:54 PM43.0 °F30.0 °F60 %29.91 in10.0 miSE (140°)6.9 mphClear
Hourly data recorded from KSUS, located miles away from St. Louis, Missouri







STORIES FROM OUR PARTNERS